GW5267 Weather Reports


time (UTC)temp
F
wind
direction
speed
knots
gust
knots
rain 1hr
in
rain 24hr
in
rain mn
in
humidity
%
barometer
mb
20260504070228 43 314 0.0 0.0 0.00 0.00 0.00 82 1015.4
20260504060149 43 314 0.0 0.0 0.00 0.00 0.00 67 1015.6
20260504050617 42 314 0.0 0.0 0.00 0.00 0.00 71 1015.8
20260504050114 42 314 0.0 0.0 0.00 0.00 0.00 68 1015.9
20260504045611 42 314 0.0 0.0 0.00 0.00 0.00 71 1015.7
20260504045106 42 314 0.0 0.0 0.00 0.00 0.00 67 1015.9
20260504044604 42 314 0.0 0.0 0.00 0.00 0.00 68 1015.8
20260504044100 42 314 0.0 0.0 0.00 0.00 0.00 68 1015.8
20260504043558 41 314 0.0 0.0 0.00 0.00 0.00 67 1015.8
20260504043055 41 314 0.0 0.0 0.00 0.00 0.00 69 1015.8
20260504042552 40 314 0.0 0.0 0.00 0.00 0.00 68 1015.8
20260504042044 40 314 0.0 0.0 0.00 0.00 0.00 68 1015.8
20260504041539 40 314 0.0 0.0 0.00 0.00 0.00 71 1015.9
20260504041036 40 314 0.0 0.0 0.00 0.00 0.00 74 1016.0
20260504040533 41 314 0.0 0.0 0.00 0.00 0.00 67 1016.0
20260504040030 41 314 0.0 0.0 0.00 0.00 0.00 66 1016.0
20260504035527 41 314 0.0 0.0 0.00 0.00 0.00 68 1015.9
20260504035023 41 314 0.0 0.0 0.00 0.00 0.00 67 1015.9
20260504034521 41 314 0.0 0.0 0.00 0.00 0.00 66 1016.0
20260504034018 41 314 0.0 0.0 0.00 0.00 0.00 65 1015.9
20260504033516 41 314 0.0 0.0 0.00 0.00 0.00 66 1015.8
20260504033013 41 314 0.0 0.0 0.00 0.00 0.00 65 1016.1
20260504032509 41 314 0.0 0.0 0.00 0.00 0.00 68 1016.0
20260504032006 41 314 0.0 0.0 0.00 0.00 0.00 67 1016.0
20260504031503 41 314 0.0 0.0 0.00 0.00 0.00 65 1016.2
20260504030959 41 314 0.0 0.0 0.00 0.00 0.00 65 1016.2
20260504030457 41 314 0.0 0.0 0.00 0.00 0.00 64 1016.2
20260504025952 41 314 0.0 0.0 0.00 0.00 0.00 67 1016.0
20260504025450 41 314 0.0 0.0 0.00 0.00 0.00 66 1016.0
20260504024947 41 314 0.0 0.0 0.00 0.00 0.00 66 1015.9
20260504024443 42 314 0.0 0.0 0.00 0.00 0.00 63 1016.0
20260504023940 43 314 0.0 0.0 0.00 0.00 0.00 62 1015.9
20260504023437 44 314 0.0 0.0 0.00 0.00 0.00 58 1016.0
20260504022933 44 314 0.0 0.0 0.00 0.00 0.00 56 1016.0
20260504022429 44 314 0.0 0.0 0.00 0.00 0.00 58 1015.8
20260504021926 44 314 0.0 0.0 0.00 0.00 0.00 59 1016.0
20260504021423 44 314 0.0 0.0 0.00 0.00 0.00 59 1016.1
20260504020921 44 314 0.0 0.0 0.00 0.00 0.00 59 1016.2
20260504020417 45 314 0.0 0.0 0.00 0.00 0.00 56 1016.0
20260504015914 46 314 0.0 0.0 0.00 0.00 0.00 53 1016.0
20260504015410 46 314 0.0 0.0 0.00 0.00 0.00 55 1015.9
20260504014906 46 314 0.0 0.0 0.00 0.00 0.00 54 1015.9
20260504014402 46 314 0.0 0.0 0.00 0.00 0.00 53 1015.9
20260504013859 46 314 0.0 0.0 0.00 0.00 0.00 53 1015.9
20260504013357 46 314 0.0 0.0 0.00 0.00 0.00 53 1016.0
20260504012853 47 314 0.0 0.0 0.00 0.00 0.00 51 1015.9
20260504012351 47 314 0.0 0.0 0.00 0.00 0.00 52 1015.6
20260504011848 47 314 0.0 0.0 0.00 0.00 0.00 52 1015.8
20260504011344 47 314 0.0 0.0 0.00 0.00 0.00 50 1015.7
20260504010841 47 314 0.0 0.0 0.00 0.00 0.00 51 1015.7
20260504010336 47 314 0.0 0.0 0.00 0.00 0.00 50 1015.9
20260504005833 47 314 0.0 0.0 0.00 0.00 0.00 50 1015.8
20260504005330 47 314 0.0 0.0 0.00 0.00 0.00 51 1015.7
20260504004827 47 314 0.0 0.0 0.00 0.00 0.00 52 1015.8
20260504004325 47 314 0.0 0.0 0.00 0.00 0.00 51 1015.7
20260504003821 47 314 0.0 0.0 0.00 0.00 0.00 51 1015.8
20260504003318 47 314 0.0 0.0 0.00 0.00 0.00 51 1015.7
20260504002814 48 315 0.0 0.0 0.00 0.00 0.00 49 1015.7
20260504002311 48 299 0.0 0.0 0.00 0.00 0.00 50 1015.7
20260504001809 49 298 0.0 0.0 0.00 0.00 0.00 51 1015.7
20260504001306 50 289 0.0 0.9 0.00 0.00 0.00 48 1015.6
20260504000803 50 270 0.9 1.7 0.00 0.00 0.00 45 1015.7
20260504000300 50 295 0.0 2.6 0.00 0.00 0.00 46 1015.6
20260503235758 51 278 1.7 2.6 0.00 0.00 0.00 44 1015.6
20260503235255 51 262 1.7 1.7 0.00 0.00 0.00 44 1015.6
20260503234753 51 285 1.7 3.5 0.00 0.00 0.00 43 1015.5
20260503234250 51 286 5.2 7.8 0.00 0.00 0.00 43 1015.6
20260503233747 52 260 5.2 7.0 0.00 0.00 0.00 41 1015.7
20260503233243 52 270 2.6 7.0 0.00 0.00 0.00 43 1015.8
20260503232741 52 305 0.9 2.6 0.00 0.00 0.00 44 1015.8
20260503232238 52 270 0.9 2.6 0.00 0.00 0.00 45 1015.9
20260503231736 52 278 1.7 6.1 0.00 0.00 0.00 42 1015.6
20260503231232 52 274 2.6 3.5 0.00 0.00 0.00 44 1015.7
20260503230723 53 269 4.3 8.7 0.00 0.00 0.00 42 1015.7
20260503230220 53 283 1.7 3.5 0.00 0.00 0.00 44 1015.8
20260503225717 53 286 3.5 7.8 0.00 0.00 0.00 43 1015.7
20260503225212 53 286 3.5 5.2 0.00 0.00 0.00 41 1015.6
20260503224709 53 257 5.2 7.0 0.00 0.00 0.00 42 1015.8
20260503224207 54 273 7.0 8.7 0.00 0.00 0.00 42 1015.6
20260503223705 54 253 3.5 7.8 0.00 0.00 0.00 40 1015.6
20260503223202 54 232 1.7 6.1 0.00 0.00 0.00 41 1015.7
20260503222658 54 262 5.2 7.0 0.00 0.00 0.00 42 1015.8
20260503222156 54 311 4.3 13.9 0.00 0.00 0.00 38 1015.9
20260503221654 54 303 5.2 9.6 0.00 0.00 0.00 41 1015.9
20260503221151 55 254 7.8 9.6 0.00 0.00 0.00 41 1015.7
20260503220648 55 309 5.2 8.7 0.00 0.00 0.00 38 1015.8
20260503220144 54 279 3.5 5.2 0.00 0.00 0.00 40 1015.8
20260503215641 55 272 6.1 8.7 0.00 0.00 0.00 40 1015.7
20260503215138 55 259 6.1 9.6 0.00 0.00 0.00 39 1015.7
20260503214637 55 242 1.7 11.3 0.00 0.00 0.00 40 1015.6
20260503214132 54 265 2.6 6.1 0.00 0.00 0.00 41 1015.8
20260503213631 55 274 2.6 7.0 0.00 0.00 0.00 40 1015.9
20260503213127 56 314 5.2 11.3 0.00 0.00 0.00 39 1015.8
20260503212625 55 272 1.7 3.5 0.00 0.00 0.00 43 1015.9
20260503212122 54 9 2.6 8.7 0.00 0.00 0.00 41 1015.7
20260503211620 54 285 5.2 12.2 0.00 0.00 0.00 39 1015.9
20260503211115 56 310 8.7 11.3 0.00 0.00 0.00 38 1015.9
20260503210612 55 254 1.7 9.6 0.00 0.00 0.00 42 1016.0
20260503210109 55 287 2.6 7.8 0.00 0.00 0.00 42 1015.9
20260503205604 55 301 4.3 9.6 0.00 0.00 0.00 39 1016.1
20260503205101 53 302 4.3 7.8 0.00 0.00 0.00 40 1015.9
20260503204558 54 292 3.5 8.7 0.00 0.00 0.00 41 1016.1
20260503204055 55 185 3.5 5.2 0.00 0.00 0.00 39 1016.2
20260503203552 53 23 4.3 6.1 0.00 0.00 0.00 39 1016.2
20260503203049 55 258 3.5 8.7 0.00 0.00 0.00 38 1016.1
20260503202547 53 314 3.5 7.8 0.00 0.00 0.00 40 1016.3
20260503202045 54 223 5.2 8.7 0.00 0.00 0.00 42 1016.4
20260503201543 55 276 8.7 12.2 0.00 0.00 0.00 41 1016.4
20260503201040 55 272 1.7 9.6 0.00 0.00 0.00 43 1016.4
20260503200536 54 289 2.6 3.5 0.00 0.00 0.00 39 1016.5
20260503200032 54 302 5.2 7.0 0.00 0.00 0.00 39 1016.6
20260503195530 53 250 5.2 8.7 0.00 0.00 0.00 44 1016.5
20260503195026 55 261 7.8 11.3 0.00 0.00 0.00 43 1016.6
20260503194524 55 262 4.3 7.8 0.00 0.00 0.00 42 1016.8
20260503194023 54 291 3.5 8.7 0.00 0.00 0.00 40 1017.1
20260503193521 53 327 5.2 11.3 0.00 0.00 0.00 40 1016.9
20260503193016 52 291 5.2 7.8 0.00 0.00 0.00 41 1016.9
20260503192512 53 288 2.6 5.2 0.00 0.00 0.00 39 1017.1
20260503192008 54 308 5.2 8.7 0.00 0.00 0.00 41 1017.1
20260503191505 52 327 6.1 7.8 0.00 0.00 0.00 44 1017.1
20260503191001 55 259 7.8 9.6 0.00 0.00 0.00 41 1017.2
20260503190459 53 250 2.6 3.5 0.00 0.00 0.00 42 1017.2
20260503185956 54 311 6.1 9.6 0.00 0.00 0.00 38 1017.4
20260503185452 53 326 6.1 8.7 0.00 0.00 0.00 40 1017.3
20260503184951 54 271 6.1 8.7 0.00 0.00 0.00 42 1017.4
20260503184448 54 301 3.5 8.7 0.00 0.00 0.00 45 1017.3
20260503183944 52 218 6.1 8.7 0.00 0.00 0.00 43 1017.6
20260503183441 52 265 0.9 8.7 0.00 0.00 0.00 43 1017.7
20260503182938 52 280 8.7 12.2 0.00 0.00 0.00 45 1017.5
20260503182437 51 279 6.1 7.8 0.00 0.00 0.00 44 1017.5
20260503181934 52 237 6.1 8.7 0.00 0.00 0.00 44 1017.6
20260503181431 51 261 7.8 11.3 0.00 0.00 0.00 44 1017.8
20260503180927 51 293 5.2 6.1 0.00 0.00 0.00 45 1017.7
20260503180427 52 309 7.8 13.0 0.00 0.00 0.00 43 1017.9
20260503175922 52 250 7.8 12.2 0.00 0.00 0.00 45 1017.8
20260503175420 52 306 4.3 7.0 0.00 0.00 0.00 51 1017.9
20260503174915 51 271 9.6 12.2 0.00 0.00 0.00 51 1018.0
20260503174415 51 309 3.5 6.1 0.00 0.00 0.00 44 1017.9
20260503173914 51 232 6.1 11.3 0.00 0.00 0.00 46 1018.0
20260503173411 50 261 3.5 8.7 0.00 0.00 0.00 46 1018.0
20260503172908 51 302 1.7 9.6 0.00 0.00 0.00 46 1018.0
20260503172405 49 299 8.7 11.3 0.00 0.00 0.00 48 1018.1
20260503171901 50 262 3.5 12.2 0.00 0.00 0.00 45 1018.2
20260503171358 50 283 2.6 13.0 0.00 0.00 0.00 48 1018.2
20260503170855 51 247 6.1 12.2 0.00 0.00 0.00 49 1018.2
20260503170352 49 306 3.5 6.1 0.00 0.00 0.00 47 1018.2
20260503150744 46 306 3.5 5.2 0.00 0.00 0.00 59 1019.2
20260503150240 46 257 4.3 7.8 0.00 0.00 0.00 55 1019.2
20260503140204 43 270 5.2 9.6 0.00 0.00 0.00 61 1019.2
20260503131134 42 305 3.5 7.0 0.00 0.00 0.00 69 1018.9
20260503130632 41 227 7.0 8.7 0.00 0.00 0.00 67 1018.9
20260503130129 41 287 3.5 6.1 0.00 0.00 0.00 69 1018.9
20260503110510 32 268 0.9 1.7 0.00 0.00 0.00 96 1018.1
20260503090356 32 281 0.0 0.0 0.00 0.00 0.00 95 1017.1
20260503081323 32 291 0.0 0.0 0.00 0.00 0.00 94 1016.9
20260503080820 32 291 0.0 0.0 0.00 0.00 0.00 94 1016.9
20260503080317 32 286 0.0 0.0 0.00 0.00 0.00 93 1016.8
20260503072753 34 278 0.0 0.0 0.00 0.00 0.00 88 1016.5
20260503072250 34 273 0.0 1.7 0.00 0.00 0.00 88 1016.4
20260503071746 34 282 0.9 2.6 0.00 0.00 0.00 88 1016.5
20260503071243 35 276 0.9 1.7 0.00 0.00 0.00 88 1016.5
20260503070739 35 277 1.7 2.6 0.00 0.00 0.00 87 1016.4